Wetterdaten: Samstag, 15.02.2014
Datum Zeit Temperatur Luftfeuchte Luftdruck Regen Wind Richtung Richtung Taupunkt Windchill Windben
15.02.2014 00:00 4,7 C 64 % 1007,1 hPa 0,0 l/m 2,6 km/h (1 Bft) SW 225 -1,5 C 6,2 C 3,4 km/h (1 Bft)
15.02.2014 00:05 4,8 C 64 % 1007,1 hPa 0,0 l/m 2,4 km/h (1 Bft) S-SW 202 -1,4 C 6,2 C 1,8 km/h (1 Bft)
15.02.2014 00:10 5,0 C 63 % 1007,0 hPa 0,0 l/m 2,6 km/h (1 Bft) NO 45 -1,4 C 6,3 C 3,9 km/h (1 Bft)
15.02.2014 00:15 5,1 C 63 % 1007,0 hPa 0,0 l/m 2,1 km/h (1 Bft) N-NW 337 -1,4 C 6,5 C 5,8 km/h (2 Bft)
15.02.2014 00:20 5,2 C 62 % 1007,0 hPa 0,0 l/m 2,3 km/h (1 Bft) W-NW 292 -1,5 C 6,9 C 9,7 km/h (2 Bft)
15.02.2014 00:25 5,4 C 62 % 1007,0 hPa 0,0 l/m 2,6 km/h (1 Bft) W 270 -1,3 C 7,1 C 6,3 km/h (2 Bft)
15.02.2014 00:30 5,7 C 61 % 1006,8 hPa 0,0 l/m 2,1 km/h (1 Bft) W-SW 247 -1,2 C 7,4 C 7,2 km/h (2 Bft)
15.02.2014 00:35 6,1 C 59 % 1006,8 hPa 0,0 l/m 2,4 km/h (1 Bft) N-NO 22 -1,3 C 7,5 C 4,7 km/h (1 Bft)
15.02.2014 00:40 6,2 C 57 % 1006,8 hPa 0,0 l/m 2,6 km/h (1 Bft) W-SW 247 -1,7 C 7,7 C 5,1 km/h (1 Bft)
15.02.2014 00:45 6,2 C 58 % 1006,8 hPa 0,0 l/m 1,9 km/h (1 Bft) S-SW 202 -1,4 C 7,7 C 0,0 km/h (0 Bft)
15.02.2014 00:50 6,2 C 57 % 1007,2 hPa 0,0 l/m 1,8 km/h (1 Bft) W-SW 247 -1,7 C 7,6 C 6,8 km/h (2 Bft)
15.02.2014 00:55 6,2 C 57 % 1007,2 hPa 0,0 l/m 2,3 km/h (1 Bft) S-SW 202 -1,7 C 7,5 C 3,1 km/h (1 Bft)
15.02.2014 01:00 5,9 C 58 % 1007,2 hPa 0,0 l/m 2,9 km/h (1 Bft) N 360 -1,7 C 7,5 C 6,1 km/h (2 Bft)
15.02.2014 01:05 6,0 C 58 % 1007,2 hPa 0,0 l/m 2,4 km/h (1 Bft) N 360 -1,6 C 7,5 C 0,0 km/h (0 Bft)
15.02.2014 01:10 5,9 C 59 % 1006,8 hPa 0,0 l/m 1,3 km/h (1 Bft) W-NW 292 -1,5 C 7,4 C 1,9 km/h (1 Bft)
15.02.2014 01:13 5,8 C 59 % 1006,8 hPa 0,0 l/m 1,0 km/h (0 Bft) W-SW 247 -1,6 C 7,3 C 4,8 km/h (1 Bft)
15.02.2014 01:15 5,8 C 59 % 1006,8 hPa 0,0 l/m 1,0 km/h (0 Bft) W-SW 247 -1,6 C 7,3 C 4,8 km/h (1 Bft)
15.02.2014 01:20 5,6 C 59 % 1006,8 hPa 0,0 l/m 2,3 km/h (1 Bft) N-NO 22 -1,8 C 7,3 C 3,5 km/h (1 Bft)
15.02.2014 01:25 5,5 C 59 % 1006,8 hPa 0,0 l/m 2,7 km/h (1 Bft) N-NW 337 -1,9 C 7,2 C 4,0 km/h (1 Bft)
15.02.2014 01:30 5,5 C 60 % 1006,7 hPa 0,0 l/m 1,8 km/h (1 Bft) W 270 -1,6 C 7,1 C 0,0 km/h (0 Bft)
15.02.2014 01:35 5,5 C 59 % 1006,7 hPa 0,0 l/m 1,8 km/h (1 Bft) W-NW 292 -1,9 C 7,1 C 3,1 km/h (1 Bft)
15.02.2014 01:40 5,4 C 60 % 1006,7 hPa 0,0 l/m 1,9 km/h (1 Bft) S 180 -1,7 C 7,0 C 3,9 km/h (1 Bft)
15.02.2014 01:45 5,4 C 60 % 1006,7 hPa 0,0 l/m 2,4 km/h (1 Bft) NO 45 -1,7 C 6,9 C 4,8 km/h (1 Bft)
15.02.2014 01:50 5,1 C 59 % 1006,4 hPa 0,0 l/m 2,6 km/h (1 Bft) NW 315 -2,2 C 6,8 C 4,5 km/h (1 Bft)
15.02.2014 01:55 5,4 C 59 % 1006,4 hPa 0,0 l/m 2,9 km/h (1 Bft) W 270 -2,0 C 6,8 C 4,3 km/h (1 Bft)
15.02.2014 02:00 5,5 C 59 % 1006,4 hPa 0,0 l/m 3,4 km/h (1 Bft) O 90 -1,9 C 7,1 C 6,4 km/h (2 Bft)
15.02.2014 02:05 5,7 C 59 % 1006,4 hPa 0,0 l/m 3,4 km/h (1 Bft) W 270 -1,7 C 7,3 C 2,3 km/h (1 Bft)
15.02.2014 02:10 5,6 C 59 % 1006,4 hPa 0,0 l/m 2,9 km/h (1 Bft) W-NW 292 -1,8 C 7,3 C 2,9 km/h (1 Bft)
15.02.2014 02:15 5,7 C 59 % 1006,4 hPa 0,0 l/m 2,9 km/h (1 Bft) O-SO 112 -1,7 C 7,3 C 2,9 km/h (1 Bft)
15.02.2014 02:20 5,6 C 59 % 1006,4 hPa 0,0 l/m 2,6 km/h (1 Bft) W 270 -1,8 C 7,3 C 11,3 km/h (2 Bft)
15.02.2014 02:25 5,6 C 59 % 1006,4 hPa 0,0 l/m 2,4 km/h (1 Bft) W-NW 292 -1,8 C 7,3 C 6,3 km/h (2 Bft)
15.02.2014 02:30 5,9 C 59 % 1006,2 hPa 0,0 l/m 3,2 km/h (1 Bft) O-NO 67 -1,5 C 7,3 C 2,6 km/h (1 Bft)
15.02.2014 02:35 5,8 C 59 % 1006,2 hPa 0,0 l/m 3,7 km/h (1 Bft) S-SW 202 -1,6 C 7,2 C 9,7 km/h (2 Bft)
15.02.2014 02:40 6,0 C 57 % 1006,2 hPa 0,0 l/m 4,0 km/h (1 Bft) W-NW 292 -1,9 C 7,3 C 3,9 km/h (1 Bft)
15.02.2014 02:45 5,9 C 58 % 1006,2 hPa 0,0 l/m 3,9 km/h (1 Bft) W 270 -1,7 C 7,3 C 4,7 km/h (1 Bft)
15.02.2014 02:50 6,0 C 57 % 1005,9 hPa 0,0 l/m 3,5 km/h (1 Bft) W-SW 247 -1,9 C 7,6 C 4,2 km/h (1 Bft)
15.02.2014 02:55 5,7 C 58 % 1005,9 hPa 0,0 l/m 3,5 km/h (1 Bft) O 90 -1,9 C 7,6 C 2,3 km/h (1 Bft)
15.02.2014 03:00 6,0 C 56 % 1005,9 hPa 0,0 l/m 2,9 km/h (1 Bft) W-NW 292 -2,1 C 7,3 C 0,0 km/h (0 Bft)
15.02.2014 03:05 5,6 C 58 % 1005,9 hPa 0,0 l/m 3,1 km/h (1 Bft) W-NW 292 -2,0 C 7,3 C 2,6 km/h (1 Bft)
15.02.2014 03:10 5,5 C 58 % 1005,5 hPa 0,0 l/m 2,4 km/h (1 Bft) W-NW 292 -2,1 C 7,1 C 2,4 km/h (1 Bft)
15.02.2014 03:15 5,6 C 58 % 1005,5 hPa 0,0 l/m 2,3 km/h (1 Bft) W-SW 247 -2,0 C 6,9 C 6,4 km/h (2 Bft)
15.02.2014 03:20 5,4 C 58 % 1005,5 hPa 0,0 l/m 2,3 km/h (1 Bft) NO 45 -2,2 C 6,6 C 4,8 km/h (1 Bft)
15.02.2014 03:25 5,3 C 58 % 1005,5 hPa 0,0 l/m 2,6 km/h (1 Bft) W-NW 292 -2,3 C 6,6 C 3,7 km/h (1 Bft)
15.02.2014 03:30 5,5 C 58 % 1005,2 hPa 0,0 l/m 2,9 km/h (1 Bft) N-NO 22 -2,1 C 6,6 C 2,3 km/h (1 Bft)
15.02.2014 03:35 5,3 C 58 % 1005,2 hPa 0,0 l/m 1,9 km/h (1 Bft) W-NW 292 -2,3 C 6,6 C 3,4 km/h (1 Bft)
15.02.2014 03:40 5,2 C 58 % 1005,2 hPa 0,0 l/m 2,4 km/h (1 Bft) W-SW 247 -2,4 C 6,7 C 12,9 km/h (3 Bft)
15.02.2014 03:45 5,7 C 58 % 1005,2 hPa 0,0 l/m 3,1 km/h (1 Bft) NO 45 -1,9 C 7,0 C 1,9 km/h (1 Bft)
15.02.2014 03:50 5,9 C 57 % 1004,9 hPa 0,0 l/m 2,6 km/h (1 Bft) NW 315 -2,0 C 7,1 C 2,6 km/h (1 Bft)
15.02.2014 03:55 5,6 C 57 % 1004,9 hPa 0,0 l/m 2,4 km/h (1 Bft) O-SO 112 -2,2 C 7,0 C 4,5 km/h (1 Bft)
15.02.2014 04:00 5,6 C 58 % 1004,9 hPa 0,0 l/m 2,6 km/h (1 Bft) W-NW 292 -2,0 C 7,0 C 3,9 km/h (1 Bft)
15.02.2014 04:05 5,5 C 58 % 1004,9 hPa 0,0 l/m 2,6 km/h (1 Bft) N-NO 22 -2,1 C 7,0 C 2,4 km/h (1 Bft)
15.02.2014 04:10 5,6 C 58 % 1004,4 hPa 0,0 l/m 3,1 km/h (1 Bft) S-SW 202 -2,0 C 7,0 C 3,9 km/h (1 Bft)
15.02.2014 04:15 6,0 C 57 % 1004,4 hPa 0,0 l/m 3,5 km/h (1 Bft) SO 135 -1,9 C 7,2 C 3,4 km/h (1 Bft)
15.02.2014 04:20 6,1 C 56 % 1004,4 hPa 0,0 l/m 3,5 km/h (1 Bft) W-NW 292 -2,0 C 7,3 C 6,3 km/h (2 Bft)
15.02.2014 04:25 6,0 C 56 % 1004,4 hPa 0,0 l/m 3,2 km/h (1 Bft) O 90 -2,1 C 7,5 C 2,6 km/h (1 Bft)
15.02.2014 04:30 6,2 C 56 % 1004,4 hPa 0,0 l/m 3,4 km/h (1 Bft) N-NO 22 -1,9 C 7,5 C 5,5 km/h (1 Bft)
15.02.2014 04:35 6,3 C 56 % 1004,4 hPa 0,0 l/m 3,1 km/h (1 Bft) W-NW 292 -1,8 C 7,4 C 3,4 km/h (1 Bft)
15.02.2014 04:40 6,1 C 56 % 1004,4 hPa 0,0 l/m 2,4 km/h (1 Bft) N 360 -2,0 C 7,3 C 0,0 km/h (0 Bft)
15.02.2014 04:45 6,0 C 56 % 1004,4 hPa 0,0 l/m 2,4 km/h (1 Bft) O-SO 112 -2,1 C 7,4 C 3,1 km/h (1 Bft)
15.02.2014 04:50 6,1 C 56 % 1004,1 hPa 0,0 l/m 2,7 km/h (1 Bft) W-SW 247 -2,0 C 7,4 C 4,5 km/h (1 Bft)
15.02.2014 04:55 6,2 C 56 % 1004,1 hPa 0,0 l/m 2,7 km/h (1 Bft) SW 225 -1,9 C 7,4 C 2,3 km/h (1 Bft)
15.02.2014 05:00 6,8 C 55 % 1004,1 hPa 0,0 l/m 2,6 km/h (1 Bft) W 270 -1,6 C 7,4 C 5,5 km/h (1 Bft)
15.02.2014 05:05 6,5 C 55 % 1004,1 hPa 0,0 l/m 2,4 km/h (1 Bft) N-NO 22 -1,9 C 7,4 C 4,5 km/h (1 Bft)
15.02.2014 05:10 6,5 C 55 % 1004,6 hPa 0,0 l/m 2,7 km/h (1 Bft) W-NW 292 -1,9 C 7,6 C 6,4 km/h (2 Bft)
15.02.2014 05:15 6,4 C 55 % 1004,6 hPa 0,0 l/m 3,1 km/h (1 Bft) S 180 -2,0 C 7,7 C 3,5 km/h (1 Bft)
15.02.2014 05:20 6,7 C 55 % 1004,6 hPa 0,0 l/m 3,1 km/h (1 Bft) W-SW 247 -1,7 C 7,6 C 3,1 km/h (1 Bft)
15.02.2014 05:25 6,4 C 55 % 1004,6 hPa 0,0 l/m 2,9 km/h (1 Bft) O 90 -2,0 C 7,6 C 0,0 km/h (0 Bft)
15.02.2014 05:30 6,7 C 55 % 1004,9 hPa 0,0 l/m 3,4 km/h (1 Bft) S-SW 202 -1,7 C 7,6 C 7,4 km/h (2 Bft)
15.02.2014 05:35 6,0 C 57 % 1004,9 hPa 0,0 l/m 4,8 km/h (1 Bft) SO 135 -1,9 C 6,8 C 7,9 km/h (2 Bft)
15.02.2014 05:40 7,2 C 55 % 1004,9 hPa 0,0 l/m 6,9 km/h (2 Bft) S-SO 157 -1,2 C 5,8 C 9,0 km/h (2 Bft)
15.02.2014 05:45 6,6 C 56 % 1004,9 hPa 0,0 l/m 7,2 km/h (2 Bft) O-SO 112 -1,5 C 5,8 C 8,4 km/h (2 Bft)
15.02.2014 05:50 6,3 C 57 % 1005,9 hPa 0,0 l/m 8,0 km/h (2 Bft) O-SO 112 -1,6 C 4,8 C 17,7 km/h (3 Bft)
15.02.2014 05:55 6,4 C 57 % 1005,9 hPa 0,0 l/m 6,9 km/h (2 Bft) S 180 -1,5 C 5,5 C 5,1 km/h (1 Bft)
15.02.2014 06:00 6,2 C 57 % 1005,9 hPa 0,0 l/m 5,8 km/h (2 Bft) S-SO 157 -1,7 C 5,8 C 6,6 km/h (2 Bft)
15.02.2014 06:05 6,2 C 57 % 1005,9 hPa 0,0 l/m 6,3 km/h (2 Bft) O 90 -1,7 C 5,6 C 10,5 km/h (2 Bft)
15.02.2014 06:10 6,5 C 57 % 1006,4 hPa 0,0 l/m 6,6 km/h (2 Bft) S 180 -1,4 C 5,4 C 6,9 km/h (2 Bft)
15.02.2014 06:14 6,6 C 57 % 1006,4 hPa 0,0 l/m 6,8 km/h (2 Bft) O 90 -1,3 C 5,1 C 6,0 km/h (2 Bft)
15.02.2014 06:15 6,6 C 57 % 1006,4 hPa 0,0 l/m 6,8 km/h (2 Bft) O 90 -1,3 C 5,1 C 6,0 km/h (2 Bft)
15.02.2014 06:20 5,8 C 58 % 1006,4 hPa 0,0 l/m 4,7 km/h (1 Bft) N 360 -1,8 C 6,3 C 2,3 km/h (1 Bft)
15.02.2014 06:25 5,4 C 59 % 1006,4 hPa 0,0 l/m 3,5 km/h (1 Bft) O 90 -2,0 C 6,5 C 7,6 km/h (2 Bft)
15.02.2014 06:30 5,6 C 60 % 1006,7 hPa 0,0 l/m 3,5 km/h (1 Bft) N-NW 337 -1,5 C 6,4 C 3,2 km/h (1 Bft)
15.02.2014 06:35 5,5 C 61 % 1006,7 hPa 0,0 l/m 3,5 km/h (1 Bft) S 180 -1,4 C 6,3 C 2,6 km/h (1 Bft)
15.02.2014 06:40 5,1 C 61 % 1006,7 hPa 0,0 l/m 1,9 km/h (1 Bft) W-SW 247 -1,8 C 6,1 C 2,6 km/h (1 Bft)
15.02.2014 06:45 5,0 C 63 % 1006,7 hPa 0,0 l/m 2,6 km/h (1 Bft) O-NO 67 -1,4 C 5,8 C 6,3 km/h (2 Bft)
15.02.2014 06:50 5,0 C 63 % 1006,8 hPa 0,0 l/m 3,7 km/h (1 Bft) NW 315 -1,4 C 5,1 C 1,9 km/h (1 Bft)
15.02.2014 06:55 4,1 C 65 % 1006,8 hPa 0,0 l/m 2,9 km/h (1 Bft) NW 315 -1,9 C 5,1 C 0,0 km/h (0 Bft)
15.02.2014 07:00 3,8 C 66 % 1006,8 hPa 0,0 l/m 1,6 km/h (1 Bft) O-SO 112 -2,0 C 4,5 C 1,8 km/h (1 Bft)
15.02.2014 07:05 3,8 C 67 % 1006,8 hPa 0,0 l/m 1,4 km/h (1 Bft) O-SO 112 -1,8 C 4,1 C 0,0 km/h (0 Bft)
15.02.2014 07:10 3,6 C 68 % 1006,9 hPa 0,0 l/m 1,1 km/h (1 Bft) N 360 -1,7 C 3,7 C 1,6 km/h (1 Bft)
15.02.2014 07:15 3,5 C 68 % 1006,9 hPa 0,0 l/m 1,0 km/h (0 Bft) N-NO 22 -1,8 C 3,6 C 0,0 km/h (0 Bft)
15.02.2014 07:20 3,3 C 68 % 1006,9 hPa 0,0 l/m 0,6 km/h (0 Bft) N-NO 22 -2,0 C 3,4 C 2,1 km/h (1 Bft)
15.02.2014 07:25 3,6 C 69 % 1006,9 hPa 0,0 l/m 1,0 km/h (0 Bft) W-NW 292 -1,5 C 3,4 C 0,0 km/h (0 Bft)
15.02.2014 07:30 3,4 C 68 % 1007,0 hPa 0,0 l/m 1,8 km/h (1 Bft) O-NO 67 -1,9 C 3,4 C 2,7 km/h (1 Bft)
15.02.2014 07:35 3,6 C 68 % 1007,0 hPa 0,0 l/m 1,4 km/h (1 Bft) NO 45 -1,7 C 3,5 C 0,0 km/h (0 Bft)
15.02.2014 07:40 3,1 C 68 % 1007,0 hPa 0,0 l/m 0,8 km/h (0 Bft) O 90 -2,2 C 3,4 C 0,0 km/h (0 Bft)
15.02.2014 07:45 3,5 C 69 % 1007,0 hPa 0,0 l/m 0,5 km/h (0 Bft) O-NO 67 -1,6 C 3,3 C 0,0 km/h (0 Bft)
15.02.2014 07:50 3,1 C 68 % 1006,8 hPa 0,0 l/m 1,3 km/h (1 Bft) S 180 -2,2 C 3,4 C 0,0 km/h (0 Bft)
15.02.2014 07:55 2,8 C 68 % 1006,8 hPa 0,0 l/m 1,1 km/h (1 Bft) NO 45 -2,5 C 3,3 C 1,9 km/h (1 Bft)
15.02.2014 08:00 2,7 C 69 % 1006,8 hPa 0,0 l/m 0,8 km/h (0 Bft) W-SW 247 -2,4 C 3,2 C 0,0 km/h (0 Bft)
15.02.2014 08:05 3,2 C 69 % 1006,8 hPa 0,0 l/m 1,6 km/h (1 Bft) S 180 -1,9 C 3,2 C 2,6 km/h (1 Bft)
15.02.2014 08:10 3,5 C 69 % 1006,9 hPa 0,0 l/m 1,9 km/h (1 Bft) SO 135 -1,6 C 3,8 C 0,0 km/h (0 Bft)
15.02.2014 08:15 3,6 C 68 % 1006,9 hPa 0,0 l/m 1,8 km/h (1 Bft) S 180 -1,7 C 4,0 C 3,5 km/h (1 Bft)
15.02.2014 08:20 4,5 C 65 % 1006,9 hPa 0,0 l/m 2,3 km/h (1 Bft) O-NO 67 -1,5 C 4,3 C 5,0 km/h (1 Bft)
15.02.2014 08:25 4,4 C 65 % 1006,9 hPa 0,0 l/m 3,2 km/h (1 Bft) O 90 -1,6 C 4,7 C 4,0 km/h (1 Bft)
15.02.2014 08:30 4,3 C 65 % 1006,8 hPa 0,0 l/m 2,1 km/h (1 Bft) NO 45 -1,7 C 5,0 C 0,0 km/h (0 Bft)
15.02.2014 08:35 4,0 C 65 % 1006,8 hPa 0,0 l/m 0,8 km/h (0 Bft) SO 135 -2,0 C 5,0 C 0,0 km/h (0 Bft)
15.02.2014 08:40 3,9 C 65 % 1006,8 hPa 0,0 l/m 0,6 km/h (0 Bft) O-NO 67 -2,1 C 4,8 C 0,0 km/h (0 Bft)
15.02.2014 08:45 4,4 C 65 % 1006,8 hPa 0,0 l/m 1,0 km/h (0 Bft) S-SW 202 -1,6 C 5,0 C 3,1 km/h (1 Bft)
15.02.2014 08:50 4,5 C 64 % 1006,9 hPa 0,0 l/m 1,3 km/h (1 Bft) S-SW 202 -1,7 C 5,2 C 2,4 km/h (1 Bft)
15.02.2014 08:55 4,5 C 64 % 1006,9 hPa 0,0 l/m 1,8 km/h (1 Bft) N-NO 22 -1,7 C 5,3 C 1,8 km/h (1 Bft)
15.02.2014 09:00 4,5 C 64 % 1006,9 hPa 0,0 l/m 1,8 km/h (1 Bft) S-SO 157 -1,7 C 5,3 C 2,7 km/h (1 Bft)
15.02.2014 09:05 4,7 C 63 % 1006,9 hPa 0,0 l/m 1,8 km/h (1 Bft) S 180 -1,7 C 5,6 C 2,6 km/h (1 Bft)
15.02.2014 09:10 4,8 C 63 % 1006,8 hPa 0,0 l/m 1,3 km/h (1 Bft) O 90 -1,6 C 5,9 C 0,0 km/h (0 Bft)
15.02.2014 09:15 4,8 C 63 % 1006,8 hPa 0,0 l/m 0,3 km/h (0 Bft) O-NO 67 -1,6 C 6,1 C 1,9 km/h (1 Bft)
15.02.2014 09:20 5,1 C 62 % 1006,8 hPa 0,0 l/m 0,5 km/h (0 Bft) N-NO 22 -1,6 C 6,7 C 0,0 km/h (0 Bft)
15.02.2014 09:25 5,2 C 62 % 1006,8 hPa 0,0 l/m 1,3 km/h (1 Bft) W-SW 247 -1,5 C 7,7 C 6,1 km/h (2 Bft)
15.02.2014 09:30 5,7 C 62 % 1006,8 hPa 0,0 l/m 1,9 km/h (1 Bft) O-NO 67 -1,0 C 9,5 C 0,0 km/h (0 Bft)
15.02.2014 09:35 5,8 C 61 % 1006,8 hPa 0,0 l/m 1,8 km/h (1 Bft) NO 45 -1,1 C 10,2 C 2,7 km/h (1 Bft)
15.02.2014 09:40 6,4 C 60 % 1006,8 hPa 0,0 l/m 1,4 km/h (1 Bft) W-SW 247 -0,8 C 10,0 C 5,0 km/h (1 Bft)
15.02.2014 09:45 6,6 C 59 % 1006,8 hPa 0,0 l/m 1,6 km/h (1 Bft) N-NO 22 -0,8 C 10,3 C 3,1 km/h (1 Bft)
15.02.2014 09:50 6,8 C 59 % 1006,8 hPa 0,0 l/m 1,6 km/h (1 Bft) NO 45 -0,6 C 10,4 C 1,8 km/h (1 Bft)
15.02.2014 09:55 6,9 C 59 % 1006,8 hPa 0,0 l/m 2,1 km/h (1 Bft) W-SW 247 -0,5 C 10,4 C 6,4 km/h (2 Bft)
15.02.2014 10:00 7,3 C 58 % 1006,8 hPa 0,0 l/m 2,3 km/h (1 Bft) NO 45 -0,4 C 10,7 C 4,3 km/h (1 Bft)
15.02.2014 10:05 7,5 C 58 % 1006,8 hPa 0,0 l/m 1,9 km/h (1 Bft) SW 225 -0,2 C 11,2 C 0,0 km/h (0 Bft)
15.02.2014 10:10 8,0 C 57 % 1006,4 hPa 0,0 l/m 1,9 km/h (1 Bft) O-NO 67 0,0 C 12,5 C 0,0 km/h (0 Bft)
15.02.2014 10:15 8,3 C 57 % 1006,4 hPa 0,0 l/m 2,4 km/h (1 Bft) S-SW 202 0,3 C 13,7 C 4,5 km/h (1 Bft)
15.02.2014 10:20 9,1 C 55 % 1006,4 hPa 0,0 l/m 2,3 km/h (1 Bft) O-NO 67 0,5 C 15,2 C 1,8 km/h (1 Bft)
15.02.2014 10:25 9,1 C 55 % 1006,4 hPa 0,0 l/m 1,9 km/h (1 Bft) W 270 0,5 C 16,3 C 2,3 km/h (1 Bft)
15.02.2014 10:30 9,3 C 55 % 1007,3 hPa 0,0 l/m 1,6 km/h (1 Bft) SO 135 0,7 C 17,7 C 3,4 km/h (1 Bft)
15.02.2014 10:35 9,7 C 53 % 1007,3 hPa 0,0 l/m 1,8 km/h (1 Bft) NO 45 0,6 C 18,0 C 4,3 km/h (1 Bft)
15.02.2014 10:40 9,9 C 53 % 1007,3 hPa 0,0 l/m 2,1 km/h (1 Bft) W 270 0,8 C 18,5 C 3,4 km/h (1 Bft)
15.02.2014 10:45 10,3 C 53 % 1007,3 hPa 0,0 l/m 2,3 km/h (1 Bft) N-NO 22 1,1 C 19,2 C 3,9 km/h (1 Bft)
15.02.2014 10:50 11,1 C 49 % 1007,6 hPa 0,0 l/m 1,9 km/h (1 Bft) NO 45 0,8 C 19,9 C 7,2 km/h (2 Bft)
15.02.2014 10:55 10,8 C 51 % 1007,6 hPa 0,0 l/m 1,9 km/h (1 Bft) O-SO 112 1,1 C 18,9 C 1,8 km/h (1 Bft)
15.02.2014 11:00 11,2 C 48 % 1007,6 hPa 0,0 l/m 2,1 km/h (1 Bft) W-NW 292 0,6 C 17,8 C 4,8 km/h (1 Bft)
15.02.2014 11:05 10,9 C 49 % 1007,6 hPa 0,0 l/m 1,9 km/h (1 Bft) S 180 0,6 C 16,9 C 6,9 km/h (2 Bft)
15.02.2014 11:10 10,6 C 49 % 1007,6 hPa 0,0 l/m 2,4 km/h (1 Bft) O 90 0,3 C 15,8 C 2,1 km/h (1 Bft)
15.02.2014 11:14 10,5 C 50 % 1007,6 hPa 0,0 l/m 2,3 km/h (1 Bft) O-SO 112 0,5 C 15,3 C 2,3 km/h (1 Bft)
15.02.2014 11:15 10,5 C 50 % 1007,6 hPa 0,0 l/m 2,3 km/h (1 Bft) O-SO 112 0,5 C 15,3 C 2,3 km/h (1 Bft)
15.02.2014 11:20 11,3 C 46 % 1007,6 hPa 0,0 l/m 2,7 km/h (1 Bft) W 270 0,1 C 16,6 C 3,9 km/h (1 Bft)
15.02.2014 11:25 12,1 C 44 % 1007,6 hPa 0,0 l/m 3,2 km/h (1 Bft) N 360 0,2 C 17,5 C 6,4 km/h (2 Bft)
15.02.2014 11:30 12,7 C 42 % 1007,5 hPa 0,0 l/m 3,7 km/h (1 Bft) W-SW 247 0,1 C 18,4 C 8,9 km/h (2 Bft)
15.02.2014 11:35 13,1 C 38 % 1007,5 hPa 0,0 l/m 5,3 km/h (1 Bft) N 360 -0,9 C 18,2 C 6,1 km/h (2 Bft)
15.02.2014 11:40 14,6 C 33 % 1007,5 hPa 0,0 l/m 6,8 km/h (2 Bft) SW 225 -1,5 C 18,1 C 19,3 km/h (3 Bft)
15.02.2014 11:45 14,9 C 33 % 1007,5 hPa 0,0 l/m 6,9 km/h (2 Bft) W-NW 292 -1,2 C 18,4 C 10,8 km/h (2 Bft)
15.02.2014 11:50 15,1 C 31 % 1007,3 hPa 0,0 l/m 5,6 km/h (1 Bft) N-NW 337 -1,9 C 19,1 C 7,4 km/h (2 Bft)
15.02.2014 11:55 14,8 C 30 % 1007,3 hPa 0,0 l/m 5,1 km/h (1 Bft) O 90 -2,6 C 19,2 C 3,4 km/h (1 Bft)
15.02.2014 12:00 14,6 C 30 % 1007,3 hPa 0,0 l/m 6,3 km/h (2 Bft) N-NO 22 -2,8 C 19,0 C 9,5 km/h (2 Bft)
15.02.2014 12:05 14,8 C 32 % 1007,3 hPa 0,0 l/m 5,6 km/h (1 Bft) N-NW 337 -1,7 C 18,9 C 7,4 km/h (2 Bft)
15.02.2014 12:10 14,9 C 32 % 1007,6 hPa 0,0 l/m 3,9 km/h (1 Bft) NW 315 -1,6 C 19,0 C 4,0 km/h (1 Bft)
15.02.2014 12:15 14,8 C 31 % 1007,6 hPa 0,0 l/m 3,4 km/h (1 Bft) S 180 -2,2 C 19,1 C 7,6 km/h (2 Bft)
15.02.2014 12:20 14,6 C 32 % 1007,6 hPa 0,0 l/m 3,5 km/h (1 Bft) N-NW 337 -1,9 C 19,1 C 2,4 km/h (1 Bft)
15.02.2014 12:25 14,2 C 34 % 1007,6 hPa 0,0 l/m 3,1 km/h (1 Bft) W-NW 292 -1,4 C 19,2 C 0,0 km/h (0 Bft)
15.02.2014 12:30 14,4 C 34 % 1007,5 hPa 0,0 l/m 2,6 km/h (1 Bft) N 360 -1,3 C 19,2 C 4,0 km/h (1 Bft)
15.02.2014 12:35 14,5 C 33 % 1007,5 hPa 0,0 l/m 3,1 km/h (1 Bft) W 270 -1,6 C 19,2 C 7,6 km/h (2 Bft)
15.02.2014 12:40 14,2 C 32 % 1007,5 hPa 0,0 l/m 3,5 km/h (1 Bft) N 360 -2,2 C 19,4 C 7,6 km/h (2 Bft)
15.02.2014 12:45 14,2 C 32 % 1007,5 hPa 0,0 l/m 3,9 km/h (1 Bft) W 270 -2,2 C 19,1 C 3,4 km/h (1 Bft)
15.02.2014 12:50 14,3 C 31 % 1007,2 hPa 0,0 l/m 4,2 km/h (1 Bft) O-SO 112 -2,6 C 18,8 C 4,2 km/h (1 Bft)
15.02.2014 12:55 14,0 C 33 % 1007,2 hPa 0,0 l/m 2,9 km/h (1 Bft) N 360 -2,0 C 18,9 C 6,4 km/h (2 Bft)
15.02.2014 13:00 14,0 C 34 % 1007,2 hPa 0,0 l/m 2,6 km/h (1 Bft) W-NW 292 -1,6 C 18,8 C 3,1 km/h (1 Bft)
15.02.2014 13:05 14,0 C 34 % 1007,2 hPa 0,0 l/m 3,1 km/h (1 Bft) S-SW 202 -1,6 C 18,9 C 4,8 km/h (1 Bft)
15.02.2014 13:10 14,1 C 34 % 1007,1 hPa 0,0 l/m 3,1 km/h (1 Bft) W-NW 292 -1,5 C 19,0 C 1,9 km/h (1 Bft)
15.02.2014 13:15 14,0 C 34 % 1007,1 hPa 0,0 l/m 3,1 km/h (1 Bft) W 270 -1,6 C 19,1 C 6,1 km/h (2 Bft)
15.02.2014 13:20 14,3 C 33 % 1007,1 hPa 0,0 l/m 2,4 km/h (1 Bft) NW 315 -1,7 C 19,0 C 0,0 km/h (0 Bft)
15.02.2014 13:25 14,8 C 31 % 1007,1 hPa 0,0 l/m 3,2 km/h (1 Bft) O-SO 112 -2,2 C 19,3 C 5,8 km/h (2 Bft)
15.02.2014 13:30 14,6 C 32 % 1006,8 hPa 0,0 l/m 2,9 km/h (1 Bft) O-NO 67 -1,9 C 19,7 C 4,0 km/h (1 Bft)
15.02.2014 13:35 14,0 C 33 % 1006,8 hPa 0,0 l/m 3,5 km/h (1 Bft) NW 315 -2,0 C 19,7 C 5,8 km/h (2 Bft)
15.02.2014 13:40 14,1 C 33 % 1006,8 hPa 0,0 l/m 4,0 km/h (1 Bft) O-SO 112 -1,9 C 19,9 C 4,2 km/h (1 Bft)
15.02.2014 13:45 14,9 C 33 % 1006,8 hPa 0,0 l/m 4,2 km/h (1 Bft) S-SO 157 -1,2 C 20,0 C 4,3 km/h (1 Bft)
15.02.2014 13:50 14,9 C 33 % 1006,8 hPa 0,0 l/m 4,7 km/h (1 Bft) SO 135 -1,2 C 19,7 C 3,4 km/h (1 Bft)
15.02.2014 13:55 15,2 C 32 % 1006,8 hPa 0,0 l/m 4,2 km/h (1 Bft) S 180 -1,4 C 19,7 C 3,9 km/h (1 Bft)
15.02.2014 14:00 15,7 C 32 % 1006,8 hPa 0,0 l/m 4,3 km/h (1 Bft) O-NO 67 -0,9 C 20,2 C 4,0 km/h (1 Bft)
15.02.2014 14:05 15,6 C 32 % 1006,8 hPa 0,0 l/m 4,2 km/h (1 Bft) O-SO 112 -1,0 C 20,4 C 4,3 km/h (1 Bft)
15.02.2014 14:10 14,8 C 30 % 1006,6 hPa 0,0 l/m 3,4 km/h (1 Bft) N-NW 337 -2,6 C 19,1 C 3,5 km/h (1 Bft)
15.02.2014 14:15 15,0 C 31 % 1006,6 hPa 0,0 l/m 3,4 km/h (1 Bft) O-SO 112 -2,0 C 18,5 C 4,5 km/h (1 Bft)
15.02.2014 14:20 15,6 C 32 % 1006,6 hPa 0,0 l/m 2,7 km/h (1 Bft) W-SW 247 -1,0 C 19,2 C 0,0 km/h (0 Bft)
15.02.2014 14:25 16,0 C 34 % 1006,6 hPa 0,0 l/m 2,4 km/h (1 Bft) NO 45 0,2 C 19,8 C 6,1 km/h (2 Bft)
15.02.2014 14:30 15,9 C 32 % 1006,4 hPa 0,0 l/m 3,1 km/h (1 Bft) N 360 -0,8 C 19,9 C 0,0 km/h (0 Bft)
15.02.2014 14:35 16,0 C 33 % 1006,4 hPa 0,0 l/m 2,6 km/h (1 Bft) O-NO 67 -0,3 C 19,9 C 4,8 km/h (1 Bft)
15.02.2014 14:40 16,3 C 33 % 1006,4 hPa 0,0 l/m 1,0 km/h (0 Bft) SO 135 0,0 C 20,5 C 0,0 km/h (0 Bft)
15.02.2014 14:45 16,8 C 32 % 1006,4 hPa 0,0 l/m 1,6 km/h (1 Bft) SO 135 0,0 C 20,9 C 4,8 km/h (1 Bft)
15.02.2014 14:50 17,1 C 33 % 1006,4 hPa 0,0 l/m 1,6 km/h (1 Bft) W-SW 247 0,7 C 21,7 C 4,2 km/h (1 Bft)
15.02.2014 14:55 17,2 C 31 % 1006,4 hPa 0,0 l/m 2,4 km/h (1 Bft) O 90 -0,1 C 22,2 C 3,4 km/h (1 Bft)
15.02.2014 15:00 16,7 C 32 % 1006,4 hPa 0,0 l/m 4,2 km/h (1 Bft) S 180 -0,1 C 21,6 C 4,3 km/h (1 Bft)
15.02.2014 15:05 17,3 C 33 % 1006,4 hPa 0,0 l/m 3,5 km/h (1 Bft) S 180 0,9 C 21,1 C 3,2 km/h (1 Bft)
15.02.2014 15:10 17,8 C 33 % 1006,4 hPa 0,0 l/m 2,4 km/h (1 Bft) W-SW 247 1,3 C 20,6 C 7,2 km/h (2 Bft)
15.02.2014 15:15 17,2 C 32 % 1006,4 hPa 0,0 l/m 3,2 km/h (1 Bft) SW 225 0,4 C 19,9 C 7,6 km/h (2 Bft)
15.02.2014 15:20 16,4 C 33 % 1006,4 hPa 0,0 l/m 4,3 km/h (1 Bft) W-SW 247 0,1 C 18,8 C 4,5 km/h (1 Bft)
15.02.2014 15:25 16,3 C 33 % 1006,4 hPa 0,0 l/m 3,9 km/h (1 Bft) S-SW 202 0,0 C 18,3 C 3,4 km/h (1 Bft)
15.02.2014 15:30 16,1 C 34 % 1006,3 hPa 0,0 l/m 3,9 km/h (1 Bft) W 270 0,2 C 17,9 C 4,5 km/h (1 Bft)
15.02.2014 15:35 16,4 C 33 % 1006,3 hPa 0,0 l/m 3,9 km/h (1 Bft) W-SW 247 0,1 C 17,9 C 5,0 km/h (1 Bft)
15.02.2014 15:40 15,5 C 32 % 1006,3 hPa 0,0 l/m 3,1 km/h (1 Bft) SW 225 -1,1 C 17,9 C 2,1 km/h (1 Bft)
15.02.2014 15:45 14,9 C 33 % 1006,3 hPa 0,0 l/m 1,8 km/h (1 Bft) S-SW 202 -1,2 C 17,5 C 0,0 km/h (0 Bft)
15.02.2014 15:50 14,3 C 34 % 1006,2 hPa 0,0 l/m 0,5 km/h (0 Bft) O 90 -1,3 C 16,8 C 0,0 km/h (0 Bft)
15.02.2014 15:55 14,4 C 34 % 1006,2 hPa 0,0 l/m 1,3 km/h (1 Bft) O 90 -1,3 C 16,5 C 3,7 km/h (1 Bft)
15.02.2014 16:00 14,4 C 35 % 1006,2 hPa 0,0 l/m 3,5 km/h (1 Bft) O-NO 67 -0,9 C 16,1 C 4,5 km/h (1 Bft)
15.02.2014 16:05 14,2 C 36 % 1006,2 hPa 0,0 l/m 4,2 km/h (1 Bft) O 90 -0,6 C 15,9 C 5,0 km/h (1 Bft)
15.02.2014 16:09 14,0 C 36 % 1006,2 hPa 0,0 l/m 4,5 km/h (1 Bft) O 90 -0,8 C 15,2 C 4,5 km/h (1 Bft)
15.02.2014 16:10 14,0 C 36 % 1006,2 hPa 0,0 l/m 4,5 km/h (1 Bft) O 90 -0,8 C 15,2 C 4,5 km/h (1 Bft)
15.02.2014 16:15 14,0 C 36 % 1006,2 hPa 0,0 l/m 4,3 km/h (1 Bft) NO 45 -0,8 C 15,1 C 4,2 km/h (1 Bft)
15.02.2014 16:20 13,9 C 38 % 1006,2 hPa 0,0 l/m 4,0 km/h (1 Bft) O-NO 67 -0,2 C 15,1 C 6,1 km/h (2 Bft)
15.02.2014 16:25 13,2 C 38 % 1006,2 hPa 0,0 l/m 3,7 km/h (1 Bft) S-SO 157 -0,8 C 15,1 C 3,7 km/h (1 Bft)
15.02.2014 16:30 13,3 C 38 % 1006,2 hPa 0,0 l/m 4,0 km/h (1 Bft) O 90 -0,7 C 15,0 C 5,3 km/h (1 Bft)
15.02.2014 16:35 13,2 C 38 % 1006,2 hPa 0,0 l/m 4,0 km/h (1 Bft) SO 135 -0,8 C 14,8 C 4,2 km/h (1 Bft)
15.02.2014 16:40 13,1 C 38 % 1006,2 hPa 0,0 l/m 4,2 km/h (1 Bft) O 90 -0,9 C 14,5 C 5,0 km/h (1 Bft)
15.02.2014 16:45 12,9 C 39 % 1006,2 hPa 0,0 l/m 4,7 km/h (1 Bft) O 90 -0,7 C 14,3 C 5,3 km/h (1 Bft)
15.02.2014 16:50 12,5 C 41 % 1006,2 hPa 0,0 l/m 4,8 km/h (1 Bft) O-NO 67 -0,4 C 13,8 C 4,3 km/h (1 Bft)
15.02.2014 16:55 12,3 C 41 % 1006,2 hPa 0,0 l/m 4,7 km/h (1 Bft) O 90 -0,6 C 13,5 C 5,0 km/h (1 Bft)
15.02.2014 17:00 12,5 C 41 % 1006,2 hPa 0,0 l/m 4,7 km/h (1 Bft) O 90 -0,4 C 13,3 C 6,3 km/h (2 Bft)
15.02.2014 17:05 12,4 C 41 % 1006,2 hPa 0,0 l/m 4,8 km/h (1 Bft) O-SO 112 -0,5 C 13,2 C 6,4 km/h (2 Bft)
15.02.2014 17:10 11,9 C 43 % 1006,2 hPa 0,0 l/m 5,3 km/h (1 Bft) O-NO 67 -0,3 C 12,8 C 6,8 km/h (2 Bft)
15.02.2014 17:15 11,6 C 43 % 1006,2 hPa 0,0 l/m 5,6 km/h (1 Bft) NO 45 -0,5 C 12,4 C 5,6 km/h (1 Bft)
15.02.2014 17:20 11,1 C 45 % 1006,2 hPa 0,0 l/m 4,8 km/h (1 Bft) W-SW 247 -0,4 C 12,0 C 4,2 km/h (1 Bft)
15.02.2014 17:25 10,2 C 48 % 1006,2 hPa 0,0 l/m 4,5 km/h (1 Bft) O-SO 112 -0,3 C 11,4 C 6,3 km/h (2 Bft)
15.02.2014 17:30 10,8 C 49 % 1006,4 hPa 0,0 l/m 4,2 km/h (1 Bft) O-SO 112 0,5 C 11,1 C 0,0 km/h (0 Bft)
15.02.2014 17:35 10,6 C 50 % 1006,4 hPa 0,0 l/m 3,5 km/h (1 Bft) S-SO 157 0,6 C 11,0 C 3,5 km/h (1 Bft)
15.02.2014 17:40 10,7 C 53 % 1006,4 hPa 0,0 l/m 2,9 km/h (1 Bft) O 90 1,5 C 11,0 C 5,8 km/h (2 Bft)
15.02.2014 17:45 10,5 C 53 % 1006,4 hPa 0,0 l/m 3,4 km/h (1 Bft) S-SO 157 1,3 C 10,8 C 2,1 km/h (1 Bft)
15.02.2014 17:50 10,5 C 55 % 1006,4 hPa 0,0 l/m 2,9 km/h (1 Bft) W-NW 292 1,8 C 10,4 C 0,0 km/h (0 Bft)
15.02.2014 17:55 9,0 C 56 % 1006,4 hPa 0,0 l/m 2,3 km/h (1 Bft) O 90 0,7 C 9,8 C 3,9 km/h (1 Bft)
15.02.2014 18:00 9,6 C 56 % 1006,4 hPa 0,0 l/m 2,7 km/h (1 Bft) W-NW 292 1,3 C 9,2 C 0,0 km/h (0 Bft)
15.02.2014 18:05 8,2 C 57 % 1006,4 hPa 0,0 l/m 3,1 km/h (1 Bft) O 90 0,2 C 8,7 C 2,1 km/h (1 Bft)
15.02.2014 18:10 9,0 C 58 % 1006,9 hPa 0,0 l/m 2,4 km/h (1 Bft) O-SO 112 1,2 C 8,1 C 4,7 km/h (1 Bft)
15.02.2014 18:15 8,9 C 58 % 1006,9 hPa 0,0 l/m 3,5 km/h (1 Bft) O-NO 67 1,1 C 7,9 C 3,1 km/h (1 Bft)
15.02.2014 18:20 9,1 C 58 % 1006,9 hPa 0,0 l/m 3,9 km/h (1 Bft) O-NO 67 1,3 C 7,6 C 7,1 km/h (2 Bft)
15.02.2014 18:25 8,6 C 59 % 1006,9 hPa 0,0 l/m 4,3 km/h (1 Bft) O-SO 112 1,0 C 7,7 C 5,3 km/h (1 Bft)
15.02.2014 18:30 7,2 C 59 % 1006,9 hPa 0,0 l/m 2,7 km/h (1 Bft) NO 45 -0,3 C 7,7 C 1,8 km/h (1 Bft)
15.02.2014 18:35 8,0 C 61 % 1006,9 hPa 0,0 l/m 1,9 km/h (1 Bft) O 90 0,9 C 7,4 C 6,9 km/h (2 Bft)
15.02.2014 18:40 8,5 C 59 % 1006,9 hPa 0,0 l/m 4,2 km/h (1 Bft) O 90 1,0 C 7,1 C 3,7 km/h (1 Bft)
15.02.2014 18:45 8,3 C 59 % 1006,9 hPa 0,0 l/m 3,2 km/h (1 Bft) O-SO 112 0,8 C 7,1 C 2,9 km/h (1 Bft)
15.02.2014 18:50 9,0 C 58 % 1007,2 hPa 0,0 l/m 1,0 km/h (0 Bft) O 90 1,2 C 6,7 C 3,1 km/h (1 Bft)
15.02.2014 18:55 8,8 C 58 % 1007,2 hPa 0,0 l/m 2,3 km/h (1 Bft) O-SO 112 1,0 C 6,7 C 4,5 km/h (1 Bft)
15.02.2014 19:00 5,8 C 62 % 1007,2 hPa 0,0 l/m 2,1 km/h (1 Bft) NO 45 -0,9 C 6,2 C 0,0 km/h (0 Bft)
15.02.2014 19:05 5,4 C 63 % 1007,2 hPa 0,0 l/m 0,5 km/h (0 Bft) NO 45 -1,1 C 5,9 C 0,0 km/h (0 Bft)
15.02.2014 19:10 5,2 C 64 % 1007,2 hPa 0,0 l/m 0,2 km/h (0 Bft) N-NW 337 -1,0 C 5,4 C 2,3 km/h (1 Bft)
15.02.2014 19:15 5,0 C 66 % 1007,2 hPa 0,0 l/m 1,0 km/h (0 Bft) O-NO 67 -0,8 C 5,3 C 3,2 km/h (1 Bft)
15.02.2014 19:20 5,0 C 67 % 1007,2 hPa 0,0 l/m 1,1 km/h (1 Bft) O 90 -0,6 C 5,1 C 0,0 km/h (0 Bft)
15.02.2014 19:25 4,8 C 67 % 1007,2 hPa 0,0 l/m 0,5 km/h (0 Bft) O-NO 67 -0,8 C 5,0 C 0,0 km/h (0 Bft)
15.02.2014 19:30 5,0 C 68 % 1007,4 hPa 0,0 l/m 0,3 km/h (0 Bft) O-SO 112 -0,4 C 4,7 C 0,0 km/h (0 Bft)
15.02.2014 19:35 4,6 C 69 % 1007,4 hPa 0,0 l/m 0,6 km/h (0 Bft) NO 45 -0,6 C 4,6 C 2,9 km/h (1 Bft)
15.02.2014 19:40 4,3 C 70 % 1007,4 hPa 0,0 l/m 0,3 km/h (0 Bft) NO 45 -0,7 C 4,1 C 0,0 km/h (0 Bft)
15.02.2014 19:45 3,8 C 70 % 1007,4 hPa 0,0 l/m 0,3 km/h (0 Bft) NO 45 -1,2 C 3,9 C 0,0 km/h (0 Bft)
15.02.2014 19:50 4,4 C 72 % 1007,8 hPa 0,0 l/m 0,2 km/h (0 Bft) S 180 -0,2 C 3,7 C 0,0 km/h (0 Bft)
15.02.2014 19:55 4,6 C 73 % 1007,8 hPa 0,0 l/m 0,3 km/h (0 Bft) O 90 0,2 C 3,8 C 3,5 km/h (1 Bft)
15.02.2014 20:00 4,1 C 71 % 1007,8 hPa 0,0 l/m 0,3 km/h (0 Bft) SO 135 -0,7 C 3,8 C 0,0 km/h (0 Bft)
15.02.2014 20:05 3,5 C 72 % 1007,8 hPa 0,0 l/m 1,1 km/h (1 Bft) O 90 -1,1 C 3,7 C 5,0 km/h (1 Bft)
15.02.2014 20:10 4,4 C 75 % 1008,5 hPa 0,0 l/m 2,4 km/h (1 Bft) N-NW 337 0,4 C 3,7 C 0,0 km/h (0 Bft)
15.02.2014 20:15 3,8 C 73 % 1008,5 hPa 0,0 l/m 2,4 km/h (1 Bft) NO 45 -0,6 C 3,9 C 3,1 km/h (1 Bft)
15.02.2014 20:20 5,0 C 74 % 1008,5 hPa 0,0 l/m 2,6 km/h (1 Bft) SO 135 0,8 C 4,5 C 7,1 km/h (2 Bft)
15.02.2014 20:25 5,2 C 73 % 1008,5 hPa 0,0 l/m 4,7 km/h (1 Bft) S-SO 157 0,8 C 4,8 C 7,6 km/h (2 Bft)
15.02.2014 20:30 5,3 C 72 % 1008,9 hPa 0,0 l/m 6,0 km/h (2 Bft) S-SO 157 0,7 C 5,1 C 5,3 km/h (1 Bft)
15.02.2014 20:35 5,2 C 71 % 1008,9 hPa 0,0 l/m 5,8 km/h (2 Bft) S-SW 202 0,4 C 5,5 C 7,2 km/h (2 Bft)
15.02.2014 20:40 5,0 C 71 % 1008,9 hPa 0,0 l/m 5,0 km/h (1 Bft) S 180 0,2 C 5,8 C 6,6 km/h (2 Bft)
15.02.2014 20:45 5,5 C 72 % 1008,9 hPa 0,0 l/m 5,3 km/h (1 Bft) SO 135 0,9 C 5,7 C 7,9 km/h (2 Bft)
15.02.2014 20:50 5,5 C 70 % 1009,5 hPa 0,0 l/m 6,1 km/h (2 Bft) S 180 0,5 C 5,8 C 4,2 km/h (1 Bft)
15.02.2014 20:55 5,7 C 70 % 1009,5 hPa 0,0 l/m 5,8 km/h (2 Bft) S-SW 202 0,7 C 6,1 C 5,8 km/h (2 Bft)
15.02.2014 21:00 6,1 C 69 % 1009,5 hPa 0,0 l/m 5,6 km/h (1 Bft) S 180 0,8 C 6,4 C 6,1 km/h (2 Bft)
15.02.2014 21:05 6,0 C 69 % 1009,5 hPa 0,0 l/m 5,5 km/h (1 Bft) S 180 0,8 C 6,5 C 5,3 km/h (1 Bft)
15.02.2014 21:08 5,9 C 70 % 1009,9 hPa 0,0 l/m 4,7 km/h (1 Bft) S-SW 202 0,9 C 6,8 C 8,2 km/h (2 Bft)
15.02.2014 21:10 5,9 C 70 % 1009,9 hPa 0,0 l/m 4,7 km/h (1 Bft) S-SW 202 0,9 C 6,8 C 8,2 km/h (2 Bft)
15.02.2014 21:15 6,1 C 70 % 1009,9 hPa 0,0 l/m 5,5 km/h (1 Bft) S 180 1,0 C 6,6 C 8,5 km/h (2 Bft)
15.02.2014 21:20 6,1 C 70 % 1009,9 hPa 0,0 l/m 6,3 km/h (2 Bft) S 180 1,0 C 6,4 C 5,3 km/h (1 Bft)
15.02.2014 21:25 6,0 C 70 % 1009,9 hPa 0,0 l/m 5,8 km/h (2 Bft) S-SW 202 1,0 C 6,5 C 6,4 km/h (2 Bft)
15.02.2014 21:30 6,0 C 70 % 1010,2 hPa 0,0 l/m 5,5 km/h (1 Bft) S-SO 157 1,0 C 6,6 C 11,6 km/h (2 Bft)
15.02.2014 21:35 6,1 C 71 % 1010,2 hPa 0,0 l/m 6,3 km/h (2 Bft) S 180 1,2 C 6,4 C 8,9 km/h (2 Bft)
15.02.2014 21:40 6,1 C 73 % 1010,2 hPa 0,0 l/m 6,3 km/h (2 Bft) S 180 1,6 C 6,4 C 6,4 km/h (2 Bft)
15.02.2014 21:45 5,9 C 74 % 1010,2 hPa 0,0 l/m 5,8 km/h (2 Bft) S 180 1,6 C 6,4 C 5,5 km/h (1 Bft)
15.02.2014 21:50 5,9 C 75 % 1010,4 hPa 0,0 l/m 5,3 km/h (1 Bft) S-SO 157 1,8 C 6,6 C 6,4 km/h (2 Bft)
15.02.2014 21:55 6,0 C 73 % 1010,4 hPa 0,0 l/m 5,3 km/h (1 Bft) W-NW 292 1,5 C 6,6 C 7,1 km/h (2 Bft)
15.02.2014 22:00 6,1 C 75 % 1010,4 hPa 0,0 l/m 5,5 km/h (1 Bft) S-SW 202 2,0 C 6,5 C 4,7 km/h (1 Bft)
15.02.2014 22:05 6,1 C 75 % 1010,4 hPa 0,0 l/m 5,6 km/h (1 Bft) SO 135 2,0 C 6,4 C 11,6 km/h (2 Bft)
15.02.2014 22:10 6,2 C 77 % 1010,6 hPa 0,0 l/m 6,4 km/h (2 Bft) S 180 2,5 C 6,1 C 8,2 km/h (2 Bft)
15.02.2014 22:15 6,2 C 78 % 1010,6 hPa 0,0 l/m 8,0 km/h (2 Bft) W-SW 247 2,7 C 4,3 C 10,3 km/h (2 Bft)
15.02.2014 22:20 6,1 C 78 % 1010,6 hPa 0,0 l/m 7,1 km/h (2 Bft) S-SO 157 2,6 C 5,2 C 5,6 km/h (1 Bft)
15.02.2014 22:25 6,1 C 79 % 1010,6 hPa 0,0 l/m 6,3 km/h (2 Bft) S 180 2,7 C 6,1 C 6,0 km/h (2 Bft)
15.02.2014 22:30 6,0 C 79 % 1011,0 hPa 0,0 l/m 6,9 km/h (2 Bft) S 180 2,6 C 5,3 C 17,2 km/h (3 Bft)
15.02.2014 22:35 6,0 C 78 % 1011,0 hPa 0,0 l/m 7,7 km/h (2 Bft) S-SW 202 2,5 C 4,4 C 8,5 km/h (2 Bft)
15.02.2014 22:40 6,0 C 78 % 1011,0 hPa 0,0 l/m 9,3 km/h (2 Bft) S 180 2,5 C 2,5 C 10,6 km/h (2 Bft)
15.02.2014 22:45 5,9 C 79 % 1011,0 hPa 0,0 l/m 8,9 km/h (2 Bft) S 180 2,5 C 3,0 C 7,6 km/h (2 Bft)
15.02.2014 22:50 5,8 C 79 % 1011,0 hPa 0,0 l/m 8,0 km/h (2 Bft) SO 135 2,4 C 3,8 C 9,3 km/h (2 Bft)
15.02.2014 22:55 5,7 C 79 % 1011,0 hPa 0,0 l/m 7,6 km/h (2 Bft) S-SW 202 2,3 C 4,0 C 7,6 km/h (2 Bft)
15.02.2014 23:00 5,7 C 78 % 1011,0 hPa 0,0 l/m 7,7 km/h (2 Bft) S 180 2,2 C 3,8 C 8,2 km/h (2 Bft)
15.02.2014 23:05 5,6 C 78 % 1011,0 hPa 0,0 l/m 8,9 km/h (2 Bft) S 180 2,1 C 2,6 C 10,9 km/h (2 Bft)
15.02.2014 23:10 5,5 C 77 % 1011,3 hPa 0,0 l/m 10,8 km/h (2 Bft) S-SW 202 1,8 C 0,4 C 22,4 km/h (4 Bft)
15.02.2014 23:15 5,5 C 77 % 1011,3 hPa 0,0 l/m 10,8 km/h (2 Bft) S-SO 157 1,8 C 0,3 C 14,2 km/h (3 Bft)
15.02.2014 23:20 5,4 C 77 % 1011,3 hPa 0,0 l/m 11,3 km/h (2 Bft) S-SW 202 1,7 C -0,2 C 12,1 km/h (2 Bft)
15.02.2014 23:25 5,4 C 77 % 1011,3 hPa 0,0 l/m 12,1 km/h (2 Bft) S 180 1,7 C -0,9 C 12,6 km/h (3 Bft)
15.02.2014 23:30 5,2 C 77 % 1011,4 hPa 0,0 l/m 10,9 km/h (2 Bft) S 180 1,5 C -0,0 C 25,6 km/h (4 Bft)
15.02.2014 23:35 5,2 C 77 % 1011,4 hPa 0,0 l/m 9,7 km/h (2 Bft) S 180 1,5 C 1,1 C 8,7 km/h (2 Bft)
15.02.2014 23:40 5,2 C 77 % 1011,4 hPa 0,0 l/m 8,7 km/h (2 Bft) S-SO 157 1,5 C 2,0 C 15,4 km/h (3 Bft)
15.02.2014 23:45 5,1 C 76 % 1011,4 hPa 0,0 l/m 8,5 km/h (2 Bft) S 180 1,2 C 2,2 C 13,2 km/h (3 Bft)
15.02.2014 23:50 5,1 C 76 % 1011,8 hPa 0,0 l/m 8,5 km/h (2 Bft) S-SO 157 1,2 C 2,2 C 7,4 km/h (2 Bft)
15.02.2014 23:55 5,0 C 76 % 1011,8 hPa 0,0 l/m 8,4 km/h (2 Bft) SW 225 1,1 C 2,1 C 10,3 km/h (2 Bft)
_ Min-Zeit 08:00 14:10 05:05 - 19:50 - - 12:00 23:25 20:10
Minimum _ 2,7 C 30 % 1004,1 hPa - 0,2 km/h (0 Bft) - - -2,8 C -0,9 C 0,0 km/h (0 Bft)
_ Max-Zeit 15:10 22:55 23:55 23:55 23:25 - - 22:25 14:55 23:30
Maximum _ 17,8 C 79 % 1011,8 hPa 0,0 l/m 12,1 km/h
S (2 Bft)
- - 2,7 C 22,2 C 25,6 km/h
S (4 Bft)
Durchschnitt _ 8,2 C 56 % 1007,1 hPa #0,0 l/m 3,5 km/h (1 Bft) S - -0,7 C 9,7 C 4,7 km/h (1 Bft)